Home   Weather   Canberra   Past weeks

Flag for Australia Past Weather in Canberra, Australian Capital Territory, Australia — Yesterday and Last 2 Weeks

Now
52 °F

Passing clouds.


Feels Like: 46 °F
Forecast: 34 / 63 °F
Wind: 20 mph from South

Location: Canberra Airport

Current Time: Apr 27, 2017 at 11:53:09 am

Latest Report: Apr 27, 2017 at 11:00 am


Visibility: N/A

Pressure: 30.04 "Hg (28.03 "Hg at 577m altitude)

Humidity: 58%

Dew Point: 37 °F

Location of CanberraLocation

Past Weather in Canberra — Graph

°F

Canberra Temperature Yesterday

Maximum temperature yesterday: 55 °F (at 12:00 am)
Minimum temperature yesterday: 43 °F (at 10:00 pm)
Average temperature yesterday: 52 °F

High & Low Weather Summary for the Past Weeks

 TemperatureHumidityPressure
High75 °F (Apr 18, 2:30 pm)100% (Apr 13, 2:00 am)30.48 "Hg (Apr 13, 2:00 am)
Low34 °F (Apr 16, 5:00 am)29% (Apr 18, 3:00 pm)29.68 "Hg (Apr 26, 11:00 am)
Average55 °F78%30.18 "Hg
* Reported Apr 12 10:00 am — Apr 27 10:00 am, Canberra, Weather by CustomWeather, © 2017

Note: Actual official high and low records may vary slightly from our data, if they occured in-between our weather recording intervals... More about our weather records

Advertising

Canberra Weather History for the Previous 24 Hours

Scroll right to see more
 ConditionsComfort  
Time TempWeatherWind HumidityBarometerVisibility
10:00 am
Thu, Apr 27
50 °FPassing clouds.20 mph62%30.04 "HgN/A
9:30 am48 °FPassing clouds.20 mph62%30.04 "HgN/A
9:00 am48 °FPassing clouds.16 mph62%30.04 "HgN/A
8:30 am46 °FPassing clouds.10 mph62%30.04 "HgN/A
7:30 am41 °FPassing clouds.8 mph76%30.01 "HgN/A
7:00 am39 °FPassing clouds.8 mph75%29.98 "HgN/A
6:30 am39 °FPassing clouds.8 mph70%29.98 "HgN/A
6:00 am37 °FPassing clouds.7 mph75%29.98 "HgN/A
5:30 am37 °FPassing clouds.8 mph75%29.98 "HgN/A
5:00 am39 °FPassing clouds.8 mph70%29.98 "HgN/A
4:30 am39 °FPassing clouds.8 mph70%29.95 "HgN/A
4:00 am39 °FClear.13 mph70%29.95 "HgN/A
3:30 am41 °FClear.12 mph66%29.95 "HgN/A
3:00 am41 °FClear.7 mph66%29.95 "HgN/A
2:30 am41 °FClear.9 mph66%29.95 "HgN/A
2:00 am41 °FClear.7 mph66%29.95 "HgN/A
1:00 am41 °FClear.7 mph66%29.95 "HgN/A
12:30 am41 °FClear.7 mph66%29.95 "HgN/A
12:00 am43 °FClear.8 mph66%29.95 "HgN/A
11:30 pm
Wed, Apr 26
43 °FClear.13 mph66%29.92 "HgN/A
11:00 pm43 °FClear.10 mph71%29.92 "HgN/A
10:30 pm45 °FPassing clouds.10 mph71%29.92 "HgN/A
10:00 pm43 °FClear.10 mph76%29.92 "HgN/A
9:30 pm45 °FClear.9 mph71%29.92 "HgN/A
9:00 pm45 °FPassing clouds.9 mph71%29.89 "HgN/A
8:30 pm46 °FPassing clouds.13 mph71%29.89 "HgN/A
8:00 pm46 °FPassing clouds.15 mph71%29.86 "HgN/A
7:30 pm48 °FPassing clouds.15 mph71%29.86 "HgN/A
7:00 pm50 °FPassing clouds.12 mph71%29.83 "HgN/A
6:30 pm50 °FPassing clouds.12 mph71%29.80 "HgN/A
6:00 pm52 °FScattered showers. Partly cloudy.9 mph67%29.77 "HgN/A
5:30 pm52 °FScattered showers. Partly cloudy.14 mph67%29.77 "HgN/A
5:00 pm52 °FScattered showers. Broken clouds.14 mph72%29.74 "HgN/A
4:30 pm52 °FScattered showers. Broken clouds.13 mph72%29.74 "HgN/A
4:00 pm52 °FScattered showers. Broken clouds.8 mph77%29.71 "HgN/A
3:30 pm52 °FSprinkles. Broken clouds.15 mph77%29.71 "HgN/A
3:00 pm55 °FScattered showers. Broken clouds.6 mph72%29.71 "HgN/A
2:30 pm54 °FScattered showers. Broken clouds.6 mph77%29.68 "HgN/A
2:00 pm54 °FBroken clouds.3 mph72%29.68 "HgN/A
1:30 pm52 °FBroken clouds.10 mph82%29.68 "HgN/A
1:00 pm50 °FSprinkles. Broken clouds.8 mph88%29.68 "HgN/A
12:30 pm50 °FRain showers. Broken clouds.14 mph88%29.68 "Hg5 mi
12:00 pm55 °FSprinkles. Broken clouds.9 mph77%29.68 "Hg5 mi
11:30 am55 °FScattered showers. Broken clouds.9 mph77%29.68 "HgN/A
11:00 am54 °FSprinkles. Broken clouds.9 mph88%29.68 "HgN/A
Weather by CustomWeather, © 2017

See weather overviewHow to use our weather pages